Lær å fly hos oss!

Oslo Flyveklubb har i mange år utdannet flygere til privatflygersetifikat PPL(A). Skolen har godkjenning for å drive utdanning til teoriundervisning til PPL(A), privatflygersertifikat PPL (A) og mørkeflyging.

Gi bort en flytur i gave

På en introduksjonstur vil kandidaten være med på forberedelser til, og gjennomføring av en flytur på en times varighet med en av våre instruktører.

Hvor vi holder til?

Flyplassen ligger i Lillestrøm 10 minutter med tog fra Oslo. Følg storgata fra Lillestrøms sentrum så vill man se plassen på venstre side.
1 week ago
Photos from Oslo Flyklubb's post

Flott innsats av Uliana og resten av svele-crewet på Flydagen 2018.

LIKE
LOVE
HAHA
WOW
SAD
ANGRY
Metar/TAF Gardermoen:

ENGM 242020Z 24003KT CAVOK 20/07 Q1014 NOSIG

TAF ENGM 241700Z 2418/2518 03005KT CAVOK